Location: Kra?nica
(53.4833°N, 14.6167°E)
Time: 17:43:47
(UTC+00:00)

Cosmos 1833 Rocket - Pass Details

Date: 23 May 2024
Orbit: 832 x 839 km, 71.0° (Epoch: 12 June)

Event Time Altitude Azimuth Distance (km) Brightness Sun altitude
Exits shadow 00:08:16 11° 240° (WSW) 2,381 4.6 -14.4°
Maximum altitude 00:13:27 45° 312° (NW) 1,126 3.5 -14.1°
Drops below altitude 10° 00:18:51 10° 26° (NNE) 2,457 6.6 -13.9°
Sets 00:21:25 0° 32° (NNE) 3,396 7.6 -13.7°
